Social login voor leden:
METAR EBOS 190620Z 12009KT 8000 NSC M02/M05 Q1014 NOSIG
TAF EBOS 190500Z 1906/2012 14010KT 8000 NSC PROB30 TEMPO 1906/1908 3500 BR TEMPO 1922/2008 BKN013 PROB30 TEMPO 2002/2007 4500 BR BKN009 BECMG 2008/2010 08005KT

Sonaca 200, onze nieuwe parel van Belgische makelij!

In maart 2019 nemen wij ons eerste gloednieuw toestel van het type Sonaca 200 in gebruik! Dit is een volgende stap in het strategisch plan om onze vloot te vernieuwen. Dit toestel is van Belgische makelij en oogt niet alleen zeer mooi, maar is ook zeer performant. Het toestel zal enerzijds gebruikt worden als lestoestel, maar wordt anderzijds ook ter beschikking gesteld van onze leden. Wil je ook vliegen op de Sonaca 200? Aarzel niet om ons te contacteren om lid te worden!

 

Opleiding Piloot
Meevliegen
Visit Us
Agenda
Opleiding Piloot
Doopvluchten
Visit Us
Volgende activiteit
Noordzee Vliegclub - Nieuwpoortsesteenweg 947 8400 Oostende - Tel 059 30 04 79 - Dit e-mailadres wordt beveiligd tegen spambots. JavaScript dient ingeschakeld te zijn om het te bekijken.

 - Copyright 2017 ©